sat.trackr.live / text

‹ back to catalog

STARLINK-2151

NORAD 48556 · 2021-041D

PAYLOAD ACTIVE UNKNOWN

§ Identity

Operator
Country
US
Launch date
2021-05-15
Launch site
AFETR
Launch vehicle
Mass (kg)
RCS (m²)

Purposes: comms

External: N2YO · Heavens-Above · Gunter

§ Orbital elements

Epoch: 2026-05-25T03:50:28.434048Z

Period
94.01 min
Inclination
53.1588°
Eccentricity
0.0001443
Mean motion
15.31735878 rev/d
Perigee alt
469.6 km
Apogee alt
471.6 km
Semi-major
6,848.8 km
B*
4.4877e-5
RAAN
146.7800°
Arg perigee
106.9576°
Mean anomaly
253.1584°
Rev number
27,676

§ Raw data

STARLINK-21511 48556U 21041D   26145.16005132  .00001029  00000+0  44877-4 0  99972 48556  53.1588 146.7800 0001443 106.9576 253.1584 15.31735878276766

JSON: /api/v1/satellites/48556 · /tle

For live sub-satellite position, see the globe view (requires WebGL).

§ Visibility from observer

Set your observer location to see the next 7 days of passes ≥ 10°. The values pass through the URL so the page stays shareable.

No JS? Fill the form by hand. The geolocation button needs JavaScript.